Rbgn^[z[y[W
メイン
   新天体発見情報
     Comet C/2020 H5 (Robinson)
投稿するにはまず登録を

スレッド表示 | 新しいものから 前のトピック | 次のトピック | 下へ
投稿者 スレッド
佐藤裕久
投稿日時: 2020-6-26 1:14
モデレータ
登録日: 2005-6-12
居住地: 日本
投稿: 2087
オンライン
Comet C/2020 H5 (Robinson)

James E. Robinson (Queens大学, Belfast, 北アイルランド)の通報によると、4月22日UT、
ハワイ Haleakalaにある小惑星地球衝突最終警報システム Asteroid Terrestrial-impact 
Last Alert System (ATLAS)調査プログラムのコースに0.5-m f/2 Schmidt反射望遠鏡で得た
CCD画像から彗星を発見した。
30秒露出4枚のスタックでおよそ14"の拡散したコマが見え、p.a.320°伸びている。
小惑星センターのPCCP webpageに公表後、佐藤英貴氏(東京都文京区, iTelescope天文台,
4月24.65日UT、60秒露出8枚のスタック, 0.51-m f/6.8 アストログラフ, Siding Spring, NSW, 
遠隔操作:中程度に集光した12" のコマを見つけたが尾はない。6".5の円形範囲で測定した光度
は18.6等であった)らCCD位置観測者によって彗星状と観測された。

彗星機能の追加報告は次の通り:

OC   Date        Reporter           Coma    Tail    PA          Exposures
Q62  2020-04-24  H. Sato             12"                         8x60s
323  2020-04-26  P. Camilleri        10"                         5x120s

発見位置は次のとおり、

     2020 UT             R.A. (2000) Decl.       Mag.
     Apr. 22.33059   10 59 10.31   -44 18 49.8   19.1
          22.33381   10 59 10.23   -44 18 48.9   19.2
          22.33934   10 59 10.14   -44 18 46.2   18.9
          22.34993   10 59 10.13   -44 18 43.8   19.2

MPCの楕円軌道要素と位置推算表は次のとおり、

Orbital elements:
    C/2020 H5 (Robinson)                                                        
T 2020 June 15.78983 TT                                 Rudenko                 
q   9.3972695            (2000.0)            P               Q                  
z  +0.0064250      Peri.  317.59885     -0.75229814     -0.44843441             
                   Node   210.91667     +0.08584110     -0.79307279             
e   0.9396227      Incl.   69.95039     -0.65320657     +0.41224039             
From 46 observations 2020 Apr. 22-May 2.                                        
                                                                                
Ephemeris:
Date    TT    R. A. (2000) Decl.     Delta      r    Elong.  Phase   m1
2020 04 03    11 03 10.1 -46 13 22   8.6947  9.4058   133.1     4.5  19.4
...
2020 04 18    10 59 49.7 -44 46 04   8.7125  9.4027   131.1     4.6  19.4
...
2020 04 26    10 58 44.0 -43 55 14   8.7425  9.4013   128.5     4.8  19.4
...
2020 05 02    10 58 15.5 -43 16 00   8.7738  9.4004   125.9     5.0  19.4
2020 05 03    10 58 12.5 -43 09 24   8.7797  9.4003   125.4     5.0  19.4
2020 05 04    10 58 10.0 -43 02 48   8.7858  9.4002   125.0     5.0  19.5
...
2020 05 10    10 58 06.0 -42 23 04   8.8266  9.3994   121.9     5.2  19.5
...
2020 05 18    10 58 29.1 -41 30 18   8.8911  9.3986   117.3     5.5  19.5
...
2020 06 02    11 00 38.3 -39 54 55   9.0389  9.3976   107.7     5.9  19.5

(MPEC 2020-J22、CBET 4767)

スレッド表示 | 新しいものから 前のトピック | 次のトピック | トップ

投稿するにはまず登録を
 
© 1999 Tsutomu Seki.